Location: Unspecified
(46.3292°N, 0.0000°E)
Time: 02:40:02
(UTC+00:00)

S-56A Canister/Altair - All Passes

Search period start: 04 April 2026 00:00
Search period end: 14 April 2026 00:00
Orbit: 632 x 2485 km, 38.9° (Epoch: 28 March)

Date Brightness Start Highest point End Pass type
(mag) Time Alt. Az. Time Alt. Az. Time Alt. Az.
4 Apr - 06:03:23 10° SSE 06:11:49 18° SE 06:20:24 10° E daylight
4 Apr - 08:02:29 10° SSW 08:15:48 42° SSE 08:28:21 10° E daylight
4 Apr - 10:06:31 10° WSW 10:21:11 61° S 10:33:15 10° E daylight
4 Apr - 12:12:40 10° W 12:26:38 58° SSW 12:36:52 10° ESE daylight
4 Apr - 14:19:49 10° W 14:30:37 34° SW 14:38:32 10° SSE daylight
5 Apr - 05:29:44 10° SSE 05:36:32 15° SE 05:43:32 10° E daylight
5 Apr - 07:27:22 10° SSW 07:40:11 39° SSE 07:52:47 10° E daylight
5 Apr - 09:30:49 10° WSW 09:45:26 60° SSE 09:58:04 10° E daylight
5 Apr - 11:36:41 10° W 11:51:04 61° S 12:02:00 10° ESE daylight
5 Apr - 13:43:38 10° W 13:55:28 39° SSW 14:04:09 10° SSE daylight
5 Apr - 15:54:00 10° WSW 15:57:44 12° SW 16:01:05 10° SW daylight
6 Apr - 04:57:05 10° SE 05:01:20 12° SE 05:05:42 10° ESE visible
6 Apr - 06:52:25 10° SSW 07:04:36 35° SE 07:17:04 10° E daylight
6 Apr - 08:55:14 10° WSW 09:09:40 58° SSE 09:22:46 10° E daylight
6 Apr - 11:00:45 10° W 11:15:26 63° S 11:27:02 10° ESE daylight
6 Apr - 13:07:30 10° W 13:20:13 43° SSW 13:29:38 10° SE daylight
6 Apr - 15:16:30 10° W 15:22:54 16° SW 15:28:16 10° SSW daylight
7 Apr - 06:17:38 10° SSW 06:29:05 32° SE 06:41:12 10° E daylight
7 Apr - 08:19:47 10° SW 08:33:54 55° SSE 08:47:21 10° E daylight
7 Apr - 10:24:54 10° W 10:39:43 64° S 10:51:58 10° ESE daylight
7 Apr - 12:31:24 10° W 12:44:51 48° SSW 12:55:00 10° SE daylight
7 Apr - 14:39:39 10° W 14:47:58 21° SW 14:54:42 10° S daylight
8 Apr - 05:43:03 10° S 05:53:39 28° SE 06:05:10 10° E daylight
8 Apr - 07:44:27 10° SW 07:58:08 53° SSE 08:11:51 10° E daylight
8 Apr - 09:49:08 10° WSW 10:03:56 64° S 10:16:47 10° ESE daylight
8 Apr - 11:55:23 10° W 12:09:23 52° SSW 12:20:15 10° SE daylight
8 Apr - 14:03:06 10° W 14:12:57 25° SW 14:20:46 10° S daylight
9 Apr - 05:08:41 10° S 05:18:17 24° SE 05:28:56 10° E daylight
9 Apr - 07:09:15 10° SW 07:22:25 50° SSE 07:36:13 10° E daylight
9 Apr - 09:13:28 10° WSW 09:28:07 64° S 09:41:31 10° E daylight
9 Apr - 11:19:25 10° W 11:33:48 55° SSW 11:45:23 10° SE daylight
9 Apr - 13:26:43 10° W 13:37:49 29° SW 13:46:37 10° SSE daylight
10 Apr - 04:34:36 10° S 04:43:01 21° SE 04:52:27 10° E visible
10 Apr - 06:34:11 10° SW 06:46:44 46° SSE 07:00:30 10° E daylight
10 Apr - 08:37:54 10° WSW 08:52:16 64° S 09:06:08 10° E daylight
10 Apr - 10:43:33 10° W 10:58:08 58° SSW 11:10:24 10° ESE daylight
10 Apr - 12:50:28 10° W 13:02:34 34° SW 13:12:15 10° SSE daylight
11 Apr - 04:00:53 10° SSE 04:07:51 17° SE 04:15:36 10° E visible
11 Apr - 05:59:17 10° SSW 06:11:08 42° SSE 06:24:39 10° E daylight
11 Apr - 08:02:27 10° WSW 08:16:25 62° S 08:30:38 10° E daylight
11 Apr - 10:07:45 10° W 10:22:23 61° SSW 10:35:17 10° ESE daylight
11 Apr - 12:14:19 10° W 12:27:13 38° SW 12:37:44 10° SSE daylight
11 Apr - 14:25:01 10° WSW 14:29:53 13° SW 14:34:20 10° SSW daylight
12 Apr - 03:27:51 10° SSE 03:32:46 13° SE 03:38:07 10° E visible
12 Apr - 05:24:31 10° SSW 05:35:38 38° SE 05:48:42 10° E daylight
12 Apr - 07:27:07 10° WSW 07:40:36 61° SSE 07:55:02 10° E daylight
12 Apr - 09:32:03 10° W 09:46:35 63° S 10:00:03 10° ESE daylight
12 Apr - 11:38:17 10° W 11:51:46 43° SSW 12:03:02 10° SSE daylight
12 Apr - 13:47:27 10° W 13:54:52 17° SW 14:01:24 10° SSW daylight
13 Apr - 04:49:54 10° SSW 05:00:12 34° SE 05:12:37 10° E daylight
13 Apr - 06:51:55 10° WSW 07:04:49 58° SSE 07:19:20 10° E daylight
13 Apr - 08:56:26 10° W 09:10:45 64° S 09:24:42 10° ESE daylight
13 Apr - 11:02:20 10° W 11:16:13 47° SSW 11:28:12 10° SE daylight
13 Apr - 13:10:33 10° W 13:19:46 21° SW 13:27:45 10° S daylight
